DELTA 1 DEB, 10832

Orbit data source: Space-Track

DELTA 1 DEB, 10832 is space debris in SSO originally from a launch on Thu, 29 Jul 1976 UTC launched from the Air Force Western Test Range (AFWTR). Debris objects in space refer to the collection of defunct objects orbiting the Earth. Examples of debris include non-operational satellites, rocket bodies, and fragments generated from explosions, collisions, or faulty payload assembly.

Loading next visibility...
Identifier
10832, 1976-077CC
Orbit
SSO
Country
Flag of USUS
Related business
Manufacturer
Unknown
Mission
Spacecraft
Bus & Motor
Unknown
Mass
Unknown
Launch date (UTC)
1976-07-29 (50 years ago)
Launch vehicle
Unknown
Launch site
Air Force Western Test Range (AFWTR)
Object type
Payload
Rocket body
Debris
Shape & HBR
Unknown shape, 0.1 m
Radar Cross Section
Small (<0.1 m²)

Expand to show TLE details & history
Last TLE update: 8 hours ago

TLE from 8 hours ago
0 DELTA 1 DEB
1 10832U 76077CC  26034.06882536  .00000042  00000-0  80433-3 0  9991
2 10832 102.2781 323.5093 0120172  63.2974 308.7863 12.20091113205312
Epoch: 2026-02-03T01:39Z
TLE epoch observation values (Epoch: 2026-02-03T01:39:06.511Z)
Latitude
10.7022°
Longitude
163.13131°
Altitude
1,534.612 km
Speed
7.126 km/s
True Right ascension
21h 24m 39s
True Declination
10° 38' 45"
Sunlit
Object was in daylight at epoch
Visualization orbit readout
Latitude
Unknown
Longitude
Unknown
Altitude
Unknown
Speed
Unknown
Apparent Right ascension
Unknown
Apparent Declination
Unknown
Sunlit
N/A
Visualization observer readout
Local Sidereal Time
11:42:57
Azimuth
Unknown
Elevation
Unknown
Doppler factor
Unknown
Orbital elements
Apogee altitude
1,685.513 km
Perigee altitude
1,494.01 km
Semi-major axis
7,967.898 km
Eccentricity
0.01202
Inclination
102.2781°
RAAN
323.5093°
Arg. of periapsis
63.2974°
True anomaly
307.70276°
Mean anomaly
308.7863°
Eccentric anomaly
308.24555°
Mean motion
3.0516 °/min
Orbital period
117.97 mins
BSTAR
0.00080433
Loading maneuver chart data...
Computing Atmospheric mass density...
Loading historical data...
Loading historical data...
Loading historical data...
Loading historical data...
Loading historical data...
Loading historical data...
Loading historical data...

Documentation

Showing up to 5 results
|